When you browse on this site, cookies collect data to enhance your experience and personalize the content and advertising you see.
Visit our Privacy Policy to learn more. By continuing to use the site, you agree to this use of cookies and data.
  • In Latvia
  • List of Countries
  • For 7 days
  • Water Temperature
  • Satellite Maps
  • Weather Map
  • Weather Widgets
  • user-avatar
    Login

    Hourly Weather Abomey

    Today, 20 July, Saturday

    Time Temperature Precipitation Wind Pressure Humidity
    00:00 +24°C° 0 mm 1 mps 741 mmHg 96%
    01:00 +24°C° 0 mm 1 mps 740 mmHg 96%
    02:00 +24°C° 0 mm 1 mps 740 mmHg 96%
    03:00 +24°C° 0 mm 1 mps 739 mmHg 96%
    04:00 +24°C° 0.1 mm 1 mps 739 mmHg 96%
    05:00 +24°C° 0.1 mm 1 mps 740 mmHg 96%
    06:00 +22°C° 0 mm 0 mps 740 mmHg 97%
    07:00 +25°C° 1.1 mm 1 mps 741 mmHg 93%
    08:00 +26°C° 1.1 mm 1 mps 741 mmHg 89%
    09:00 +27°C° 1.1 mm 1 mps 741 mmHg 85%
    10:00 +27°C° 1.7 mm 1 mps 741 mmHg 84%
    11:00 +28°C° 1.7 mm 2 mps 741 mmHg 82%
    12:00 +28°C° 0 mm 2 mps 741 mmHg 80%
    13:00 +28°C° 2.1 mm 2 mps 740 mmHg 80%
    14:00 +28°C° 2.1 mm 2 mps 739 mmHg 80%
    15:00 +28°C° 2.1 mm 2 mps 739 mmHg 80%
    16:00 +28°C° 1.6 mm 2 mps 739 mmHg 83%
    17:00 +27°C° 1.6 mm 2 mps 739 mmHg 85%
    18:00 +26°C° 1.6 mm 1 mps 739 mmHg 88%
    19:00 +25°C° 1.6 mm 2 mps 740 mmHg 90%
    20:00 +25°C° 1.6 mm 3 mps 741 mmHg 92%
    21:00 +24°C° 1.6 mm 3 mps 741 mmHg 94%
    22:00 +24°C° 0.4 mm 3 mps 741 mmHg 94%
    23:00 +24°C° 0.4 mm 3 mps 741 mmHg 95%

    Tomorrow, 21 July, Sunday

    Time Temperature Precipitation Wind Pressure Humidity
    00:00 +24°C° 0.4 mm 2 mps 741 mmHg 95%
    01:00 +24°C° 0 mm 2 mps 741 mmHg 96%
    02:00 +24°C° 0 mm 2 mps 740 mmHg 96%
    03:00 +22°C° 0 mm 3 mps 739 mmHg 96%
    04:00 +22°C° 0 mm 3 mps 740 mmHg 96%
    05:00 +23°C° 0 mm 2 mps 740 mmHg 96%
    06:00 +23°C° 0 mm 2 mps 740 mmHg 96%
    07:00 +24°C° 0 mm 3 mps 741 mmHg 93%
    08:00 +25°C° 0 mm 3 mps 741 mmHg 89%
    09:00 +26°C° 0 mm 3 mps 742 mmHg 86%
    10:00 +27°C° 0.3 mm 3 mps 742 mmHg 83%
    11:00 +28°C° 0.3 mm 2 mps 741 mmHg 80%
    12:00 +29°C° 0.3 mm 2 mps 741 mmHg 77%
    13:00 +29°C° 1.2 mm 2 mps 740 mmHg 77%
    14:00 +29°C° 1.2 mm 2 mps 739 mmHg 77%
    15:00 +29°C° 1.2 mm 2 mps 738 mmHg 77%
    16:00 +28°C° 1.9 mm 2 mps 738 mmHg 81%
    17:00 +27°C° 1.9 mm 2 mps 738 mmHg 86%
    18:00 +26°C° 1.9 mm 2 mps 739 mmHg 90%
    19:00 +26°C° 0.1 mm 2 mps 739 mmHg 91%
    20:00 +25°C° 0.1 mm 2 mps 740 mmHg 92%
    21:00 +24°C° 0.1 mm 2 mps 740 mmHg 93%
    22:00 +24°C° 0 mm 2 mps 740 mmHg 93%
    23:00 +24°C° 0 mm 2 mps 740 mmHg 93%

    Day after tomorrow, 22 July, Monday

    Time Temperature Precipitation Wind Pressure Humidity
    00:00 +24°C° 0 mm 2 mps 740 mmHg 94%
    01:00 +23°C° 0 mm 2 mps 740 mmHg 94%
    02:00 +23°C° 0 mm 2 mps 739 mmHg 94%
    03:00 +23°C° 0 mm 2 mps 739 mmHg 95%
    04:00 +23°C° 0 mm 2 mps 739 mmHg 95%
    05:00 +23°C° 0 mm 2 mps 740 mmHg 95%
    06:00 +23°C° 0 mm 2 mps 740 mmHg 96%
    07:00 +24°C° 0 mm 3 mps 740 mmHg 92%
    08:00 +25°C° 0 mm 4 mps 741 mmHg 88%
    09:00 +26°C° 0 mm 4 mps 741 mmHg 84%
    10:00 +27°C° 0.3 mm 4 mps 741 mmHg 82%
    11:00 +28°C° 0.3 mm 4 mps 740 mmHg 79%
    12:00 +29°C° 0.3 mm 3 mps 740 mmHg 76%
    13:00 +28°C° 1.8 mm 3 mps 740 mmHg 78%
    14:00 +28°C° 1.8 mm 3 mps 739 mmHg 80%
    15:00 +28°C° 1.8 mm 3 mps 738 mmHg 82%
    16:00 +27°C° 1.8 mm 2 mps 738 mmHg 85%
    17:00 +26°C° 1.8 mm 2 mps 739 mmHg 89%
    18:00 +25°C° 1.8 mm 2 mps 739 mmHg 93%
    19:00 +25°C° 1.7 mm 2 mps 739 mmHg 93%
    20:00 +24°C° 1.7 mm 3 mps 740 mmHg 94%
    21:00 +24°C° 1.7 mm 3 mps 740 mmHg 95%
    22:00 +24°C° 0.7 mm 3 mps 740 mmHg 95%
    23:00 +24°C° 0.7 mm 3 mps 740 mmHg 95%

    23 July, Tuesday

    Time Temperature Precipitation Wind Pressure Humidity
    00:00 +24°C° 0.7 mm 3 mps 739 mmHg 95%
    01:00 +22°C° 0.2 mm 3 mps 739 mmHg 95%
    02:00 +22°C° 0.2 mm 3 mps 739 mmHg 95%
    03:00 +22°C° 0.2 mm 3 mps 739 mmHg 94%
    04:00 +22°C° 0.1 mm 3 mps 739 mmHg 94%
    05:00 +22°C° 0.1 mm 3 mps 739 mmHg 94%
    06:00 +22°C° 0.1 mm 3 mps 740 mmHg 94%
    07:00 +22°C° 0.1 mm 3 mps 740 mmHg 94%
    08:00 +24°C° 0.1 mm 3 mps 740 mmHg 93%
    09:00 +24°C° 0.1 mm 3 mps 741 mmHg 92%
    10:00 +24°C° 0.2 mm 3 mps 741 mmHg 91%
    11:00 +25°C° 0.2 mm 3 mps 740 mmHg 90%
    12:00 +25°C° 0.2 mm 3 mps 740 mmHg 88%
    13:00 +25°C° 0.5 mm 3 mps 740 mmHg 88%
    14:00 +25°C° 0.5 mm 3 mps 739 mmHg 89%
    15:00 +25°C° 0.5 mm 3 mps 739 mmHg 89%
    16:00 +25°C° 0.2 mm 3 mps 739 mmHg 90%
    17:00 +24°C° 0.2 mm 2 mps 739 mmHg 91%
    18:00 +24°C° 0.2 mm 2 mps 739 mmHg 92%
    19:00 +24°C° 0 mm 2 mps 740 mmHg 93%
    20:00 +24°C° 0 mm 2 mps 740 mmHg 94%
    21:00 +23°C° 0 mm 2 mps 740 mmHg 94%
    22:00 +23°C° 0 mm 2 mps 740 mmHg 94%
    23:00 +23°C° 0 mm 2 mps 740 mmHg 94%

    24 July, Wednesday

    Time Temperature Precipitation Wind Pressure Humidity
    00:00 +23°C° 0 mm 2 mps 740 mmHg 95%
    01:00 +23°C° 0 mm 2 mps 740 mmHg 95%
    02:00 +21°C° 0 mm 2 mps 740 mmHg 95%
    03:00 +21°C° 0 mm 2 mps 740 mmHg 95%
    04:00 +21°C° 0 mm 2 mps 740 mmHg 96%
    05:00 +21°C° 0 mm 2 mps 740 mmHg 96%
    06:00 +21°C° 0 mm 2 mps 741 mmHg 96%
    07:00 +23°C° 0 mm 2 mps 741 mmHg 91%
    08:00 +25°C° 0 mm 2 mps 741 mmHg 86%
    09:00 +26°C° 0 mm 3 mps 742 mmHg 82%
    10:00 +27°C° 0.2 mm 3 mps 741 mmHg 78%
    11:00 +28°C° 0.2 mm 3 mps 741 mmHg 75%
    12:00 +29°C° 0.2 mm 3 mps 741 mmHg 71%
    13:00 +29°C° 0.6 mm 3 mps 740 mmHg 73%
    14:00 +29°C° 0.6 mm 3 mps 739 mmHg 74%
    15:00 +28°C° 0.6 mm 3 mps 738 mmHg 76%
    16:00 +28°C° 0.5 mm 2 mps 739 mmHg 80%
    17:00 +27°C° 0.5 mm 2 mps 739 mmHg 85%
    18:00 +26°C° 0.5 mm 2 mps 739 mmHg 90%
    19:00 +25°C° 0.1 mm 2 mps 739 mmHg 91%
    20:00 +24°C° 0.1 mm 2 mps 740 mmHg 92%
    21:00 +23°C° 0.1 mm 2 mps 740 mmHg 93%
    22:00 +23°C° 0 mm 2 mps 740 mmHg 93%
    23:00 +23°C° 0 mm 2 mps 740 mmHg 94%

    25 July, Thursday

    Time Temperature Precipitation Wind Pressure Humidity
    00:00 +23°C° 0 mm 2 mps 740 mmHg 94%
    01:00 +23°C° 0 mm 2 mps 740 mmHg 94%
    02:00 +23°C° 0 mm 2 mps 739 mmHg 95%
    03:00 +22°C° 0 mm 1 mps 739 mmHg 95%
    04:00 +22°C° 0 mm 1 mps 740 mmHg 95%
    05:00 +22°C° 0 mm 1 mps 740 mmHg 95%
    06:00 +22°C° 0 mm 1 mps 740 mmHg 96%
    07:00 +23°C° 0 mm 2 mps 740 mmHg 92%
    08:00 +24°C° 0 mm 2 mps 741 mmHg 89%
    09:00 +25°C° 0 mm 2 mps 741 mmHg 85%
    10:00 +26°C° 0.1 mm 2 mps 741 mmHg 82%
    11:00 +27°C° 0.1 mm 2 mps 741 mmHg 80%
    12:00 +28°C° 0.1 mm 2 mps 740 mmHg 77%
    13:00 +28°C° 0.2 mm 2 mps 740 mmHg 77%
    14:00 +28°C° 0.2 mm 3 mps 739 mmHg 76%
    15:00 +28°C° 0.2 mm 3 mps 739 mmHg 76%
    16:00 +28°C° 0.1 mm 3 mps 739 mmHg 80%
    17:00 +27°C° 0.1 mm 3 mps 738 mmHg 83%
    18:00 +26°C° 0.1 mm 3 mps 738 mmHg 87%
    19:00 +25°C° 0 mm 3 mps 739 mmHg 87%
    20:00 +24°C° 0 mm 3 mps 740 mmHg 88%
    21:00 +22°C° 0 mm 3 mps 740 mmHg 89%
    22:00 +22°C° 0 mm 3 mps 740 mmHg 90%
    23:00 +23°C° 0 mm 2 mps 740 mmHg 91%
    Show more